Year,Month,Day,Hour,Minute,Value (Times are PST for temperature in C)
2011,02,01,00,00,2.00
2011,02,01,00,01,2.00
2011,02,01,00,02,2.00
2011,02,01,00,03,2.00
2011,02,01,00,04,2.00
2011,02,01,00,05,2.00
2011,02,01,00,06,2.00
2011,02,01,00,07,2.00
2011,02,01,00,08,2.00
2011,02,01,00,09,2.00
2011,02,01,00,10,1.90
2011,02,01,00,11,1.90
2011,02,01,00,12,1.90
2011,02,01,00,13,1.90
2011,02,01,00,14,1.90
2011,02,01,00,15,1.90
2011,02,01,00,16,1.90
2011,02,01,00,17,1.90
2011,02,01,00,18,1.90
2011,02,01,00,19,1.90
2011,02,01,00,20,1.90
2011,02,01,00,21,1.90
2011,02,01,00,22,1.80
2011,02,01,00,23,1.80
2011,02,01,00,24,1.80
2011,02,01,00,25,1.80
2011,02,01,00,26,1.80
2011,02,01,00,27,1.80
2011,02,01,00,28,1.80
2011,02,01,00,29,1.80
2011,02,01,00,30,1.80
2011,02,01,00,31,1.80
2011,02,01,00,32,1.80
2011,02,01,00,33,1.80
2011,02,01,00,34,1.80
2011,02,01,00,35,1.80
2011,02,01,00,36,1.80
2011,02,01,00,37,1.80
2011,02,01,00,38,1.80
2011,02,01,00,39,1.80
2011,02,01,00,40,1.80
2011,02,01,00,41,1.80
2011,02,01,00,42,1.80
2011,02,01,00,43,1.80
2011,02,01,00,44,1.80
2011,02,01,00,45,1.80
2011,02,01,00,46,1.80
2011,02,01,00,47,1.80
2011,02,01,00,48,1.80
2011,02,01,00,49,1.80
2011,02,01,00,50,1.80
2011,02,01,00,51,1.80
2011,02,01,00,52,1.80
2011,02,01,00,53,1.80
2011,02,01,00,54,1.80
2011,02,01,00,55,1.80
2011,02,01,00,56,1.80
2011,02,01,00,57,1.80
2011,02,01,00,58,1.80
2011,02,01,00,59,1.80
2011,02,01,01,00,1.80
2011,02,01,01,01,1.80
2011,02,01,01,02,1.80
2011,02,01,01,03,1.80
2011,02,01,01,04,1.80
2011,02,01,01,05,1.80
2011,02,01,01,06,1.80
2011,02,01,01,07,1.80
2011,02,01,01,08,1.80
2011,02,01,01,09,1.70
2011,02,01,01,10,1.70
2011,02,01,01,11,1.70
2011,02,01,01,12,1.70
2011,02,01,01,13,1.70
2011,02,01,01,14,1.70
2011,02,01,01,15,1.70
2011,02,01,01,16,1.70
2011,02,01,01,17,1.70
2011,02,01,01,18,1.70
2011,02,01,01,19,1.60
2011,02,01,01,20,1.60
2011,02,01,01,21,1.60
2011,02,01,01,22,1.60
2011,02,01,01,23,1.60
2011,02,01,01,24,1.50
2011,02,01,01,25,1.50
2011,02,01,01,26,1.50
2011,02,01,01,27,1.50
2011,02,01,01,28,1.50
2011,02,01,01,29,1.50
2011,02,01,01,30,1.50
2011,02,01,01,31,1.50
2011,02,01,01,32,1.50
2011,02,01,01,33,1.50
2011,02,01,01,34,1.50
2011,02,01,01,35,1.50
2011,02,01,01,36,1.50
2011,02,01,01,37,1.50
2011,02,01,01,38,1.50
2011,02,01,01,39,1.40
2011,02,01,01,40,1.40
2011,02,01,01,41,1.40
2011,02,01,01,42,1.40
2011,02,01,01,43,1.40
2011,02,01,01,44,1.40
2011,02,01,01,45,1.40
2011,02,01,01,46,1.40
2011,02,01,01,47,1.40
2011,02,01,01,48,1.40
2011,02,01,01,49,1.30
2011,02,01,01,50,1.30
2011,02,01,01,51,1.30
2011,02,01,01,52,1.30
2011,02,01,01,53,1.30
2011,02,01,01,54,1.30
2011,02,01,01,55,1.30
2011,02,01,01,56,1.30
2011,02,01,01,57,1.40
2011,02,01,01,58,1.40
2011,02,01,01,59,1.40
2011,02,01,02,00,1.40
2011,02,01,02,01,1.30
2011,02,01,02,02,1.30
2011,02,01,02,03,1.30
2011,02,01,02,04,1.30
2011,02,01,02,05,1.40
2011,02,01,02,06,1.40
2011,02,01,02,07,1.40
2011,02,01,02,08,1.40
2011,02,01,02,09,1.40
2011,02,01,02,10,1.40
2011,02,01,02,11,1.40
2011,02,01,02,12,1.40
2011,02,01,02,13,1.30
2011,02,01,02,14,1.30
2011,02,01,02,15,1.30
2011,02,01,02,16,1.30
2011,02,01,02,17,1.30
2011,02,01,02,18,1.30
2011,02,01,02,19,1.30
2011,02,01,02,20,1.30
2011,02,01,02,21,1.30
2011,02,01,02,22,1.30
2011,02,01,02,23,1.30
2011,02,01,02,24,1.30
2011,02,01,02,25,1.30
2011,02,01,02,26,1.30
2011,02,01,02,27,1.30
2011,02,01,02,28,1.30
2011,02,01,02,29,1.30
2011,02,01,02,30,1.30
2011,02,01,02,31,1.30
2011,02,01,02,32,1.30
2011,02,01,02,33,1.30
2011,02,01,02,34,1.30
2011,02,01,02,35,1.30
2011,02,01,02,36,1.30
2011,02,01,02,37,1.30
2011,02,01,02,38,1.30
2011,02,01,02,39,1.30
2011,02,01,02,40,1.30
2011,02,01,02,41,1.30
2011,02,01,02,42,1.30
2011,02,01,02,43,1.30
2011,02,01,02,44,1.30
2011,02,01,02,45,1.30
2011,02,01,02,46,1.30
2011,02,01,02,47,1.30
2011,02,01,02,48,1.30
2011,02,01,02,49,1.30
2011,02,01,02,50,1.40
2011,02,01,02,51,1.40
2011,02,01,02,52,1.40
2011,02,01,02,53,1.40
2011,02,01,02,54,1.40
2011,02,01,02,55,1.40
2011,02,01,02,56,1.40
2011,02,01,02,57,1.40
2011,02,01,02,58,1.30
2011,02,01,02,59,1.30
2011,02,01,03,00,1.30
2011,02,01,03,01,1.30
2011,02,01,03,02,1.30
2011,02,01,03,03,1.30
2011,02,01,03,04,1.30
2011,02,01,03,05,1.20
2011,02,01,03,06,1.20
2011,02,01,03,07,1.10
2011,02,01,03,08,1.10
2011,02,01,03,09,1.10
2011,02,01,03,10,1.10
2011,02,01,03,11,1.10
2011,02,01,03,12,1.10
2011,02,01,03,13,1.10
2011,02,01,03,14,1.10
2011,02,01,03,15,1.10
2011,02,01,03,16,1.00
2011,02,01,03,17,1.00
2011,02,01,03,18,1.00
2011,02,01,03,19,1.00
2011,02,01,03,20,1.00
2011,02,01,03,21,1.00
2011,02,01,03,22,1.00
2011,02,01,03,23,1.00
2011,02,01,03,24,1.00
2011,02,01,03,25,1.00
2011,02,01,03,26,1.00
2011,02,01,03,27,1.00
2011,02,01,03,28,1.00
2011,02,01,03,29,1.00
2011,02,01,03,30,1.00
2011,02,01,03,31,0.90
2011,02,01,03,32,0.90
2011,02,01,03,33,0.90
2011,02,01,03,34,0.90
2011,02,01,03,35,0.90
2011,02,01,03,36,0.90
2011,02,01,03,37,1.00
2011,02,01,03,38,1.00
2011,02,01,03,39,1.00
2011,02,01,03,40,1.00
2011,02,01,03,41,1.10
2011,02,01,03,42,1.10
2011,02,01,03,43,1.10
2011,02,01,03,44,1.10
2011,02,01,03,45,1.10
2011,02,01,03,46,1.10
2011,02,01,03,47,1.10
2011,02,01,03,48,1.20
2011,02,01,03,49,1.20
2011,02,01,03,50,1.30
2011,02,01,03,51,1.30
2011,02,01,03,52,1.30
2011,02,01,03,53,1.30
2011,02,01,03,54,1.30
2011,02,01,03,55,1.30
2011,02,01,03,56,1.30
2011,02,01,03,57,1.30
2011,02,01,03,58,1.30
2011,02,01,03,59,1.30
2011,02,01,04,00,1.30
2011,02,01,04,01,1.30
2011,02,01,04,02,1.30
2011,02,01,04,03,1.30
2011,02,01,04,04,1.30
2011,02,01,04,05,1.30
2011,02,01,04,06,1.30
2011,02,01,04,07,1.30
2011,02,01,04,08,1.30
2011,02,01,04,09,1.30
2011,02,01,04,10,1.30
2011,02,01,04,11,1.30
2011,02,01,04,12,1.30
2011,02,01,04,13,1.30
2011,02,01,04,14,1.30
2011,02,01,04,15,1.30
2011,02,01,04,16,1.40
2011,02,01,04,17,1.40
2011,02,01,04,18,1.40
2011,02,01,04,19,1.40
2011,02,01,04,20,1.40
2011,02,01,04,21,1.40
2011,02,01,04,22,1.40
2011,02,01,04,23,1.40
2011,02,01,04,24,1.40
2011,02,01,04,25,1.40
2011,02,01,04,26,1.40
2011,02,01,04,27,1.40
2011,02,01,04,28,1.40
2011,02,01,04,29,1.40
2011,02,01,04,30,1.40
2011,02,01,04,31,1.40
2011,02,01,04,32,1.40
2011,02,01,04,33,1.40
2011,02,01,04,34,1.50
2011,02,01,04,35,1.50
2011,02,01,04,36,1.50
2011,02,01,04,37,1.50
2011,02,01,04,38,1.50
2011,02,01,04,39,1.50
2011,02,01,04,40,1.50
2011,02,01,04,41,1.50
2011,02,01,04,42,1.50
2011,02,01,04,43,1.50
2011,02,01,04,44,1.50
2011,02,01,04,45,1.50
2011,02,01,04,46,1.50
2011,02,01,04,47,1.50
2011,02,01,04,48,1.50
2011,02,01,04,49,1.50
2011,02,01,04,50,1.50
2011,02,01,04,51,1.50
2011,02,01,04,52,1.50
2011,02,01,04,53,1.50
2011,02,01,04,54,1.50
2011,02,01,04,55,1.50
2011,02,01,04,56,1.50
2011,02,01,04,57,1.50
2011,02,01,04,58,1.50
2011,02,01,04,59,1.50
2011,02,01,05,00,1.50
2011,02,01,05,01,1.50
2011,02,01,05,02,1.50
2011,02,01,05,03,1.50
2011,02,01,05,04,1.50
2011,02,01,05,05,1.50
2011,02,01,05,06,1.50
2011,02,01,05,07,1.50
2011,02,01,05,08,1.50
2011,02,01,05,09,1.50
2011,02,01,05,10,1.50
2011,02,01,05,11,1.50
2011,02,01,05,12,1.50
2011,02,01,05,13,1.50
2011,02,01,05,14,1.50
2011,02,01,05,15,1.50
2011,02,01,05,16,1.60
2011,02,01,05,17,1.60
2011,02,01,05,18,1.60
2011,02,01,05,19,1.70
2011,02,01,05,20,1.80
2011,02,01,05,21,1.80
2011,02,01,05,22,1.80
2011,02,01,05,23,1.90
2011,02,01,05,24,1.90
2011,02,01,05,25,2.00
2011,02,01,05,26,2.00
2011,02,01,05,27,2.10
2011,02,01,05,28,2.10
2011,02,01,05,29,2.10
2011,02,01,05,30,2.20
2011,02,01,05,31,2.20
2011,02,01,05,32,2.20
2011,02,01,05,33,2.20
2011,02,01,05,34,2.20
2011,02,01,05,35,2.20
2011,02,01,05,36,2.20
2011,02,01,05,37,2.20
2011,02,01,05,38,2.20
2011,02,01,05,39,2.20
2011,02,01,05,40,2.20
2011,02,01,05,41,2.20
2011,02,01,05,42,2.20
2011,02,01,05,43,2.20
2011,02,01,05,44,2.30
2011,02,01,05,45,2.30
2011,02,01,05,46,2.30
2011,02,01,05,47,2.30
2011,02,01,05,48,2.20
2011,02,01,05,49,2.20
2011,02,01,05,50,2.10
2011,02,01,05,51,2.00
2011,02,01,05,52,2.00
2011,02,01,05,53,1.90
2011,02,01,05,54,1.80
2011,02,01,05,55,1.80
2011,02,01,05,56,1.70
2011,02,01,05,57,1.60
2011,02,01,05,58,1.60
2011,02,01,05,59,1.50
2011,02,01,06,00,1.50
2011,02,01,06,01,1.50
2011,02,01,06,02,1.40
2011,02,01,06,03,1.40
2011,02,01,06,04,1.30
2011,02,01,06,05,1.30
2011,02,01,06,06,1.30
2011,02,01,06,07,1.30
2011,02,01,06,08,1.30
2011,02,01,06,09,1.30
2011,02,01,06,10,1.30
2011,02,01,06,11,1.30
2011,02,01,06,12,1.30
2011,02,01,06,13,1.30
2011,02,01,06,14,1.30
2011,02,01,06,15,1.30
2011,02,01,06,16,1.30
2011,02,01,06,17,1.30
2011,02,01,06,18,1.30
2011,02,01,06,19,1.20
2011,02,01,06,20,1.20
2011,02,01,06,21,1.20
2011,02,01,06,22,1.20
2011,02,01,06,23,1.20
2011,02,01,06,24,1.20
2011,02,01,06,25,1.20
2011,02,01,06,26,1.20
2011,02,01,06,27,1.20
2011,02,01,06,28,1.20
2011,02,01,06,29,1.20
2011,02,01,06,30,1.20
2011,02,01,06,31,1.20
2011,02,01,06,32,1.10
2011,02,01,06,33,1.10
2011,02,01,06,34,1.10
2011,02,01,06,35,1.10
2011,02,01,06,36,1.10
2011,02,01,06,37,1.10
2011,02,01,06,38,1.10
2011,02,01,06,39,1.10
2011,02,01,06,40,1.10
2011,02,01,06,41,1.20
2011,02,01,06,42,1.20
2011,02,01,06,43,1.20
2011,02,01,06,44,1.20
2011,02,01,06,45,1.20
2011,02,01,06,46,1.20
2011,02,01,06,47,1.20
2011,02,01,06,48,1.20
2011,02,01,06,49,1.20
2011,02,01,06,50,1.20
2011,02,01,06,51,1.20
2011,02,01,06,52,1.20
2011,02,01,06,53,1.20
2011,02,01,06,54,1.30
2011,02,01,06,55,1.30
2011,02,01,06,56,1.30
2011,02,01,06,57,1.30
2011,02,01,06,58,1.30
2011,02,01,06,59,1.30
2011,02,01,07,00,1.30
2011,02,01,07,01,1.20
2011,02,01,07,02,1.20
2011,02,01,07,03,1.20
2011,02,01,07,04,1.20
2011,02,01,07,05,1.20
2011,02,01,07,06,1.20
2011,02,01,07,07,1.20
2011,02,01,07,08,1.20
2011,02,01,07,09,1.20
2011,02,01,07,10,1.20
2011,02,01,07,11,1.20
2011,02,01,07,12,1.20
2011,02,01,07,13,1.20
2011,02,01,07,14,1.20
2011,02,01,07,15,1.20
2011,02,01,07,16,1.20
2011,02,01,07,17,1.20
2011,02,01,07,18,1.20
2011,02,01,07,19,1.20
2011,02,01,07,20,1.20
2011,02,01,07,21,1.20
2011,02,01,07,22,1.20
2011,02,01,07,23,1.10
2011,02,01,07,24,1.10
2011,02,01,07,25,1.10
2011,02,01,07,26,1.10
2011,02,01,07,27,1.10
2011,02,01,07,28,1.10
2011,02,01,07,29,1.10
2011,02,01,07,30,1.10
2011,02,01,07,31,1.10
2011,02,01,07,32,1.10
2011,02,01,07,33,1.10
2011,02,01,07,34,1.10
2011,02,01,07,35,1.10
2011,02,01,07,36,1.10
2011,02,01,07,37,1.00
2011,02,01,07,38,1.00
2011,02,01,07,39,1.00
2011,02,01,07,40,1.00
2011,02,01,07,41,1.00
2011,02,01,07,42,1.00
2011,02,01,07,43,1.00
2011,02,01,07,44,1.00
2011,02,01,07,45,1.00
2011,02,01,07,46,1.10
2011,02,01,07,47,1.10
2011,02,01,07,48,1.10
2011,02,01,07,49,1.10
2011,02,01,07,50,1.10
2011,02,01,07,51,1.10
2011,02,01,07,52,1.10
2011,02,01,07,53,1.10
2011,02,01,07,54,1.10
2011,02,01,07,55,1.10
2011,02,01,07,56,1.20
2011,02,01,07,57,1.20
2011,02,01,07,58,1.20
2011,02,01,07,59,1.20
2011,02,01,08,00,1.20
2011,02,01,08,01,1.20
2011,02,01,08,02,1.20
2011,02,01,08,03,1.30
2011,02,01,08,04,1.30
2011,02,01,08,05,1.30
2011,02,01,08,06,1.30
2011,02,01,08,07,1.30
2011,02,01,08,08,1.30
2011,02,01,08,09,1.30
2011,02,01,08,10,1.30
2011,02,01,08,11,1.30
2011,02,01,08,12,1.40
2011,02,01,08,13,1.40
2011,02,01,08,14,1.40
2011,02,01,08,15,1.40
2011,02,01,08,16,1.40
2011,02,01,08,17,1.40
2011,02,01,08,18,1.50
2011,02,01,08,19,1.50
2011,02,01,08,20,1.50
2011,02,01,08,21,1.50
2011,02,01,08,22,1.60
2011,02,01,08,23,1.60
2011,02,01,08,24,1.60
2011,02,01,08,25,1.60
2011,02,01,08,26,1.70
2011,02,01,08,27,1.70
2011,02,01,08,28,1.70
2011,02,01,08,29,1.80
2011,02,01,08,30,1.80
2011,02,01,08,31,1.80
2011,02,01,08,32,1.80
2011,02,01,08,33,1.80
2011,02,01,08,34,1.90
2011,02,01,08,35,1.90
2011,02,01,08,36,2.00
2011,02,01,08,37,2.00
2011,02,01,08,38,2.10
2011,02,01,08,39,2.10
2011,02,01,08,40,2.10
2011,02,01,08,41,2.10
2011,02,01,08,42,2.10
2011,02,01,08,43,2.20
2011,02,01,08,44,2.20
2011,02,01,08,45,2.20
2011,02,01,08,46,2.20
2011,02,01,08,47,2.30
2011,02,01,08,48,2.30
2011,02,01,08,49,2.40
2011,02,01,08,50,2.50
2011,02,01,08,51,2.50
2011,02,01,08,52,2.60
2011,02,01,08,53,2.60
2011,02,01,08,54,2.70
2011,02,01,08,55,2.70
2011,02,01,08,56,2.80
2011,02,01,08,57,2.80
2011,02,01,08,58,2.90
2011,02,01,08,59,2.90
2011,02,01,09,00,3.00
2011,02,01,09,01,3.10
2011,02,01,09,02,3.10
2011,02,01,09,03,3.10
2011,02,01,09,04,3.20
2011,02,01,09,05,3.20
2011,02,01,09,06,3.30
2011,02,01,09,07,3.30
2011,02,01,09,08,3.30
2011,02,01,09,09,3.40
2011,02,01,09,10,3.40
2011,02,01,09,11,3.40
2011,02,01,09,12,3.50
2011,02,01,09,13,3.50
2011,02,01,09,14,3.50
2011,02,01,09,15,3.60
2011,02,01,09,16,3.50
2011,02,01,09,17,3.50
2011,02,01,09,18,3.60
2011,02,01,09,19,3.60
2011,02,01,09,20,3.60
2011,02,01,09,21,3.70
2011,02,01,09,22,3.70
2011,02,01,09,23,3.70
2011,02,01,09,24,3.80
2011,02,01,09,25,3.80
2011,02,01,09,26,3.80
2011,02,01,09,27,3.80
2011,02,01,09,28,3.80
2011,02,01,09,29,3.80
2011,02,01,09,30,3.80
2011,02,01,09,31,3.80
2011,02,01,09,32,3.80
2011,02,01,09,33,3.80
2011,02,01,09,34,3.90
2011,02,01,09,35,3.90
2011,02,01,09,36,3.90
2011,02,01,09,37,4.00
2011,02,01,09,38,4.00
2011,02,01,09,39,4.10
2011,02,01,09,40,4.10
2011,02,01,09,41,4.20
2011,02,01,09,42,4.20
2011,02,01,09,43,4.20
2011,02,01,09,44,4.20
2011,02,01,09,45,4.30
2011,02,01,09,46,4.40
2011,02,01,09,47,4.50
2011,02,01,09,48,4.50
2011,02,01,09,49,4.60
2011,02,01,09,50,4.60
2011,02,01,09,51,4.60
2011,02,01,09,52,4.60
2011,02,01,09,53,4.60
2011,02,01,09,54,4.60
2011,02,01,09,55,4.60
2011,02,01,09,56,4.60
2011,02,01,09,57,4.60
2011,02,01,09,58,4.60
2011,02,01,09,59,4.60
2011,02,01,10,00,4.60
2011,02,01,10,01,4.60
2011,02,01,10,02,4.60
2011,02,01,10,03,4.60
2011,02,01,10,04,4.60
2011,02,01,10,05,4.60
2011,02,01,10,06,4.60
2011,02,01,10,07,4.60
2011,02,01,10,08,4.60
2011,02,01,10,09,4.60
2011,02,01,10,10,4.60
2011,02,01,10,11,4.60
2011,02,01,10,12,4.60
2011,02,01,10,13,4.60
2011,02,01,10,14,4.60
2011,02,01,10,15,4.60
2011,02,01,10,16,4.50
2011,02,01,10,17,4.60
2011,02,01,10,18,4.60
2011,02,01,10,19,4.60
2011,02,01,10,20,4.60
2011,02,01,10,21,4.60
2011,02,01,10,22,4.60
2011,02,01,10,23,4.70
2011,02,01,10,24,4.70
2011,02,01,10,25,4.70
2011,02,01,10,26,4.70
2011,02,01,10,27,4.70
2011,02,01,10,28,4.70
2011,02,01,10,29,4.70
2011,02,01,10,30,4.70
2011,02,01,10,31,4.70
2011,02,01,10,32,4.70
2011,02,01,10,33,4.70
2011,02,01,10,34,4.70
2011,02,01,10,35,4.70
2011,02,01,10,36,4.70
2011,02,01,10,37,4.80
2011,02,01,10,38,4.80
2011,02,01,10,39,4.90
2011,02,01,10,40,4.90
2011,02,01,10,41,4.90
2011,02,01,10,42,4.90
2011,02,01,10,43,4.90
2011,02,01,10,44,4.90
2011,02,01,10,45,4.90
2011,02,01,10,46,4.90
2011,02,01,10,47,4.90
2011,02,01,10,48,5.10
2011,02,01,10,49,5.10
2011,02,01,10,50,5.10
2011,02,01,10,51,5.10
2011,02,01,10,52,5.10
2011,02,01,10,53,5.10
2011,02,01,10,54,5.10
2011,02,01,10,55,5.10
2011,02,01,10,56,5.10
2011,02,01,10,57,5.10
2011,02,01,10,58,5.10
2011,02,01,10,59,5.10
2011,02,01,11,00,5.10
2011,02,01,11,01,5.10
2011,02,01,11,02,5.10
2011,02,01,11,03,5.10
2011,02,01,11,04,5.00
2011,02,01,11,05,4.90
2011,02,01,11,06,4.90
2011,02,01,11,07,4.90
2011,02,01,11,08,4.80
2011,02,01,11,09,4.80
2011,02,01,11,10,4.80
2011,02,01,11,11,4.70
2011,02,01,11,12,4.70
2011,02,01,11,13,4.70
2011,02,01,11,14,4.80
2011,02,01,11,15,4.80
2011,02,01,11,16,4.80
2011,02,01,11,17,4.80
2011,02,01,11,18,4.80
2011,02,01,11,19,4.80
2011,02,01,11,20,4.80
2011,02,01,11,21,4.80
2011,02,01,11,22,4.70
2011,02,01,11,23,4.60
2011,02,01,11,24,4.70
2011,02,01,11,25,4.70
2011,02,01,11,26,4.70
2011,02,01,11,27,4.70
2011,02,01,11,28,4.70
2011,02,01,11,29,4.70
2011,02,01,11,30,4.70
2011,02,01,11,31,4.70
2011,02,01,11,32,4.70
2011,02,01,11,33,4.60
2011,02,01,11,34,4.60
2011,02,01,11,35,4.60
2011,02,01,11,36,4.60
2011,02,01,11,37,4.70
2011,02,01,11,38,4.70
2011,02,01,11,39,4.70
2011,02,01,11,40,4.70
2011,02,01,11,41,4.70
2011,02,01,11,42,4.70
2011,02,01,11,43,4.70
2011,02,01,11,44,4.70
2011,02,01,11,45,4.70
2011,02,01,11,46,4.70
2011,02,01,11,47,4.70
2011,02,01,11,48,4.70
2011,02,01,11,49,4.70
2011,02,01,11,50,4.70
2011,02,01,11,51,4.70
2011,02,01,11,52,4.60
2011,02,01,11,53,4.60
2011,02,01,11,54,4.60
2011,02,01,11,55,4.60
2011,02,01,11,56,4.60
2011,02,01,11,57,4.60
2011,02,01,11,58,4.60
2011,02,01,11,59,4.60
2011,02,01,12,00,4.60
2011,02,01,12,01,4.60
2011,02,01,12,02,4.70
2011,02,01,12,03,4.70
2011,02,01,12,04,4.70
2011,02,01,12,05,4.80
2011,02,01,12,06,4.80
2011,02,01,12,07,4.80
2011,02,01,12,08,4.90
2011,02,01,12,09,4.90
2011,02,01,12,10,5.00
2011,02,01,12,11,5.10
2011,02,01,12,12,5.10
2011,02,01,12,13,5.10
2011,02,01,12,14,5.10
2011,02,01,12,15,5.10
2011,02,01,12,16,5.10
2011,02,01,12,17,5.10
2011,02,01,12,18,5.10
2011,02,01,12,19,5.10
2011,02,01,12,20,5.10
2011,02,01,12,21,5.20
2011,02,01,12,22,5.20
2011,02,01,12,23,5.10
2011,02,01,12,24,5.10
2011,02,01,12,25,5.10
2011,02,01,12,26,5.20
2011,02,01,12,27,5.20
2011,02,01,12,28,5.20
2011,02,01,12,29,5.20
2011,02,01,12,30,5.10
2011,02,01,12,31,5.10
2011,02,01,12,32,5.10
2011,02,01,12,33,5.10
2011,02,01,12,34,5.10
2011,02,01,12,35,5.00
2011,02,01,12,36,4.90
2011,02,01,12,37,4.90
2011,02,01,12,38,4.90
2011,02,01,12,39,4.90
2011,02,01,12,40,4.90
2011,02,01,12,41,4.90
2011,02,01,12,42,4.90
2011,02,01,12,43,4.80
2011,02,01,12,44,4.80
2011,02,01,12,45,4.70
2011,02,01,12,46,4.70
2011,02,01,12,47,4.60
2011,02,01,12,48,4.50
2011,02,01,12,49,4.50
2011,02,01,12,50,4.50
2011,02,01,12,51,4.50
2011,02,01,12,52,4.50
2011,02,01,12,53,4.50
2011,02,01,12,54,4.60
2011,02,01,12,55,4.60
2011,02,01,12,56,4.60
2011,02,01,12,57,4.70
2011,02,01,12,58,4.70
2011,02,01,12,59,4.80
2011,02,01,13,00,4.80
2011,02,01,13,01,4.80
2011,02,01,13,02,4.80
2011,02,01,13,03,4.80
2011,02,01,13,04,4.90
2011,02,01,13,05,4.90
2011,02,01,13,06,4.90
2011,02,01,13,07,4.90
2011,02,01,13,08,4.90
2011,02,01,13,09,4.90
2011,02,01,13,10,4.80
2011,02,01,13,11,4.80
2011,02,01,13,12,4.80
2011,02,01,13,13,4.80
2011,02,01,13,14,4.80
2011,02,01,13,15,4.80
2011,02,01,13,16,4.90
2011,02,01,13,17,4.90
2011,02,01,13,18,4.90
2011,02,01,13,19,5.00
2011,02,01,13,20,5.10
2011,02,01,13,21,5.10
2011,02,01,13,22,5.20
2011,02,01,13,23,5.20
2011,02,01,13,24,5.30
2011,02,01,13,25,5.30
2011,02,01,13,26,5.40
2011,02,01,13,27,5.40
2011,02,01,13,28,5.50
2011,02,01,13,29,5.60
2011,02,01,13,30,5.60
2011,02,01,13,31,5.50
2011,02,01,13,32,5.50
2011,02,01,13,33,5.40
2011,02,01,13,34,5.30
2011,02,01,13,35,5.20
2011,02,01,13,36,5.20
2011,02,01,13,37,5.10
2011,02,01,13,38,5.10
2011,02,01,13,39,5.10
2011,02,01,13,40,5.00
2011,02,01,13,41,4.90
2011,02,01,13,42,4.90
2011,02,01,13,43,5.00
2011,02,01,13,44,5.10
2011,02,01,13,45,5.10
2011,02,01,13,46,5.10
2011,02,01,13,47,5.10
2011,02,01,13,48,5.20
2011,02,01,13,49,5.20
2011,02,01,13,50,5.30
2011,02,01,13,51,5.30
2011,02,01,13,52,5.30
2011,02,01,13,53,5.30
2011,02,01,13,54,5.30
2011,02,01,13,55,5.30
2011,02,01,13,56,5.20
2011,02,01,13,57,5.20
2011,02,01,13,58,5.20
2011,02,01,13,59,5.10
2011,02,01,14,00,5.10
2011,02,01,14,01,5.10
2011,02,01,14,02,5.20
2011,02,01,14,03,5.30
2011,02,01,14,04,5.30
2011,02,01,14,05,5.30
2011,02,01,14,06,5.30
2011,02,01,14,07,5.30
2011,02,01,14,08,5.40
2011,02,01,14,09,5.40
2011,02,01,14,10,5.40
2011,02,01,14,11,5.50
2011,02,01,14,12,5.50
2011,02,01,14,13,5.50
2011,02,01,14,14,5.50
2011,02,01,14,15,5.50
2011,02,01,14,16,5.40
2011,02,01,14,17,5.30
2011,02,01,14,18,5.30
2011,02,01,14,19,5.30
2011,02,01,14,20,5.30
2011,02,01,14,21,5.30
2011,02,01,14,22,5.20
2011,02,01,14,23,5.20
2011,02,01,14,24,5.20
2011,02,01,14,25,5.20
2011,02,01,14,26,5.20
2011,02,01,14,27,5.20
2011,02,01,14,28,5.20
2011,02,01,14,29,5.20
2011,02,01,14,30,5.20
2011,02,01,14,31,5.20
2011,02,01,14,32,5.20
2011,02,01,14,33,5.20
2011,02,01,14,34,5.30
2011,02,01,14,35,5.30
2011,02,01,14,36,5.30
2011,02,01,14,37,5.30
2011,02,01,14,38,5.40
2011,02,01,14,39,5.40
2011,02,01,14,40,5.40
2011,02,01,14,41,5.40
2011,02,01,14,42,5.40
2011,02,01,14,43,5.40
2011,02,01,14,44,5.40
2011,02,01,14,45,5.40
2011,02,01,14,46,5.50
2011,02,01,14,47,5.60
2011,02,01,14,48,5.60
2011,02,01,14,49,5.70
2011,02,01,14,50,5.80
2011,02,01,14,51,5.80
2011,02,01,14,52,5.90
2011,02,01,14,53,5.80
2011,02,01,14,54,5.80
2011,02,01,14,55,5.70
2011,02,01,14,56,5.70
2011,02,01,14,57,5.70
2011,02,01,14,58,5.70
2011,02,01,14,59,5.60
2011,02,01,15,00,5.60
2011,02,01,15,01,5.50
2011,02,01,15,02,5.50
2011,02,01,15,03,5.40
2011,02,01,15,04,5.30
2011,02,01,15,05,5.30
2011,02,01,15,06,5.30
2011,02,01,15,07,5.30
2011,02,01,15,08,5.30
2011,02,01,15,09,5.30
2011,02,01,15,10,5.30
2011,02,01,15,11,5.30
2011,02,01,15,12,5.30
2011,02,01,15,13,5.30
2011,02,01,15,14,5.30
2011,02,01,15,15,5.30
2011,02,01,15,16,5.30
2011,02,01,15,17,5.30
2011,02,01,15,18,5.30
2011,02,01,15,19,5.30
2011,02,01,15,20,5.30
2011,02,01,15,21,5.30
2011,02,01,15,22,5.30
2011,02,01,15,23,5.40
2011,02,01,15,24,5.50
2011,02,01,15,25,5.50
2011,02,01,15,26,5.50
2011,02,01,15,27,5.40
2011,02,01,15,28,5.40
2011,02,01,15,29,5.40
2011,02,01,15,30,5.40
2011,02,01,15,31,5.40
2011,02,01,15,32,5.40
2011,02,01,15,33,5.40
2011,02,01,15,34,5.40
2011,02,01,15,35,5.40
2011,02,01,15,36,5.40
2011,02,01,15,37,5.40
2011,02,01,15,38,5.30
2011,02,01,15,39,5.30
2011,02,01,15,40,5.30
2011,02,01,15,41,5.30
2011,02,01,15,42,5.30
2011,02,01,15,43,5.30
2011,02,01,15,44,5.30
2011,02,01,15,45,5.30
2011,02,01,15,46,5.30
2011,02,01,15,47,5.20
2011,02,01,15,48,5.20
2011,02,01,15,49,5.20
2011,02,01,15,50,5.20
2011,02,01,15,51,5.20
2011,02,01,15,52,5.20
2011,02,01,15,53,5.10
2011,02,01,15,54,5.10
2011,02,01,15,55,5.10
2011,02,01,15,56,5.10
2011,02,01,15,57,5.10
2011,02,01,15,58,5.10
2011,02,01,15,59,5.10
2011,02,01,16,00,5.10
2011,02,01,16,01,5.20
2011,02,01,16,02,5.20
2011,02,01,16,03,5.20
2011,02,01,16,04,5.20
2011,02,01,16,05,5.20
2011,02,01,16,06,5.20
2011,02,01,16,07,5.30
2011,02,01,16,08,5.20
2011,02,01,16,09,5.30
2011,02,01,16,10,5.30
2011,02,01,16,11,5.20
2011,02,01,16,12,5.20
2011,02,01,16,13,5.20
2011,02,01,16,14,5.10
2011,02,01,16,15,5.10
2011,02,01,16,16,5.10
2011,02,01,16,17,5.10
2011,02,01,16,18,5.10
2011,02,01,16,19,5.10
2011,02,01,16,20,5.00
2011,02,01,16,21,4.90
2011,02,01,16,22,4.90
2011,02,01,16,23,4.90
2011,02,01,16,24,4.90
2011,02,01,16,25,4.90
2011,02,01,16,26,4.90
2011,02,01,16,27,4.90
2011,02,01,16,28,4.80
2011,02,01,16,29,4.80
2011,02,01,16,30,4.80
2011,02,01,16,31,4.80
2011,02,01,16,32,4.70
2011,02,01,16,33,4.70
2011,02,01,16,34,4.70
2011,02,01,16,35,4.60
2011,02,01,16,36,4.60
2011,02,01,16,37,4.60
2011,02,01,16,38,4.60
2011,02,01,16,39,4.60
2011,02,01,16,40,4.50
2011,02,01,16,41,4.50
2011,02,01,16,42,4.50
2011,02,01,16,43,4.50
2011,02,01,16,44,4.50
2011,02,01,16,45,4.40
2011,02,01,16,46,4.40
2011,02,01,16,47,4.40
2011,02,01,16,48,4.30
2011,02,01,16,49,4.30
2011,02,01,16,50,4.30
2011,02,01,16,51,4.20
2011,02,01,16,52,4.20
2011,02,01,16,53,4.20
2011,02,01,16,54,4.20
2011,02,01,16,55,4.20
2011,02,01,16,56,4.20
2011,02,01,16,57,4.20
2011,02,01,16,58,4.20
2011,02,01,16,59,4.20
2011,02,01,17,00,4.10
2011,02,01,17,01,4.10
2011,02,01,17,02,4.10
2011,02,01,17,03,4.10
2011,02,01,17,04,4.10
2011,02,01,17,05,4.00
2011,02,01,17,06,4.00
2011,02,01,17,07,4.00
2011,02,01,17,08,4.00
2011,02,01,17,09,4.00
2011,02,01,17,10,3.90
2011,02,01,17,11,3.90
2011,02,01,17,12,3.90
2011,02,01,17,13,3.90
2011,02,01,17,14,3.90
2011,02,01,17,15,3.90
2011,02,01,17,16,3.80
2011,02,01,17,17,3.80
2011,02,01,17,18,3.80
2011,02,01,17,19,3.80
2011,02,01,17,20,3.80
2011,02,01,17,21,3.80
2011,02,01,17,22,3.80
2011,02,01,17,23,3.80
2011,02,01,17,24,3.80
2011,02,01,17,25,3.80
2011,02,01,17,26,3.80
2011,02,01,17,27,3.80
2011,02,01,17,28,3.80
2011,02,01,17,29,3.80
2011,02,01,17,30,3.80
2011,02,01,17,31,3.80
2011,02,01,17,32,3.70
2011,02,01,17,33,3.70
2011,02,01,17,34,3.70
2011,02,01,17,35,3.70
2011,02,01,17,36,3.70
2011,02,01,17,37,3.60
2011,02,01,17,38,3.60
2011,02,01,17,39,3.60
2011,02,01,17,40,3.60
2011,02,01,17,41,3.60
2011,02,01,17,42,3.60
2011,02,01,17,43,3.60
2011,02,01,17,44,3.50
2011,02,01,17,45,3.50
2011,02,01,17,46,3.50
2011,02,01,17,47,3.50
2011,02,01,17,48,3.50
2011,02,01,17,49,3.50
2011,02,01,17,50,3.50
2011,02,01,17,51,3.50
2011,02,01,17,52,3.50
2011,02,01,17,53,3.50
2011,02,01,17,54,3.40
2011,02,01,17,55,3.40
2011,02,01,17,56,3.40
2011,02,01,17,57,3.40
2011,02,01,17,58,3.40
2011,02,01,17,59,3.40
2011,02,01,18,00,3.40
2011,02,01,18,01,3.40
2011,02,01,18,02,3.40
2011,02,01,18,03,3.40
2011,02,01,18,04,3.30
2011,02,01,18,05,3.30
2011,02,01,18,06,3.30